Weather History for Lakehurst NAS, NJ

Change the Weather History Date:

Saturday, March 2, 2013

  Actual Average Record
Temperature  
Mean Temperature 36 °F -  
Max Temperature 30 °F 43 °F 66 °F (2004)
Min Temperature 32 °F 32 °F 28 °F (2006)
Degree Days  
Heating Degree Days 28    
Moisture  
Dew Point 22 °F    
Average Humidity 57    
Maximum Humidity 67    
Minimum Humidity 45    
Precipitation  
Precipitation 0.00 in - - ()
Sea Level Pressure  
Sea Level Pressure 29.76 in    
Wind  
Wind Speed 8 mph (NW)    
Max Wind Speed 14 mph    
Max Gust Speed 18 mph    
Averages and records for this station are not official NWS values.
T = Trace of Precipitation, MM = Missing Value Source: NWS Daily Summary

Daily Weather History Graph

Daily Weather History Graph

Search for Another Location

Airport:

Trip Planner

Search our weather history database for the weather conditions in past years. The results will help you decide how hot, cold, wet, or windy it might be!

Date:

Astronomy

Mar. 02, 2013 Rise Set
Actual Time 6:28 AM EST 5:50 PM EST
Civil Twilight 6:01 AM EST 6:17 PM EST
Nautical Twilight 5:30 AM EST 6:49 PM EST
Astronomical Twilight 4:59 AM EST 7:20 PM EST
Moon 11:27 PM EST (3/2) 8:55 AM EST (3/2)
Length of Visible Light 12h 16m
Length of Day
11h 21m
Waning Gibbous, 74% of the Moon is Illuminated
Mar 2
Waning Gibbous
Mar 4
Last Quarter
Mar 11
New
Mar 19
First Quarter
Mar 27
Full

Hourly Weather History & Observations

Time (EST) Temp. Windchill Dew Point Humidity Pressure Visibility Wind Dir Wind Speed Gust Speed Precip Events Conditions
12:00 AM 37.0 °F 31.0 °F 25.0 °F 62% 29.78 in - NW 8.1 mph - N/A   Overcast
1:00 AM 36.0 °F 31.1 °F 25.0 °F 64% 29.78 in - NW 5.8 mph - N/A   Overcast
2:00 AM 35.1 °F 29.3 °F 25.0 °F 67% 29.78 in - WNW 6.9 mph - N/A   Overcast
3:00 AM 35.1 °F 28.6 °F 23.0 °F 61% 29.78 in - NW 8.1 mph - N/A   Overcast
4:00 AM 34.0 °F 27.2 °F 23.0 °F 64% 29.78 in - NW 8.1 mph - N/A   Overcast
5:00 AM 33.1 °F 26.9 °F 21.9 °F 64% 29.78 in - NW 6.9 mph - N/A   Overcast
6:31 AM - - - N/A% - - North - - N/A   Unknown
7:00 AM 32.0 °F 26.4 °F 21.0 °F 64% 29.79 in - Variable 5.8 mph - N/A   Mostly Cloudy
8:00 AM 34.0 °F 25.5 °F 21.0 °F 59% 29.78 in - NW 11.5 mph - N/A   Mostly Cloudy
9:00 AM 35.1 °F 27.4 °F 21.0 °F 57% 29.79 in - NW 10.4 mph - N/A   Overcast
10:00 AM 37.9 °F 32.7 °F 21.0 °F 51% 29.77 in - Variable 6.9 mph 17.3 mph N/A   Scattered Clouds
11:00 AM 39.0 °F 31.8 °F 21.0 °F 49% 29.77 in - NW 11.5 mph 17.3 mph N/A   Overcast
12:00 PM 41.0 °F 35.8 °F 21.9 °F 47% 29.76 in - NW 8.1 mph - N/A   Overcast
1:00 PM 41.0 °F 33.5 °F 21.0 °F 45% 29.73 in - WNW 13.8 mph - N/A   Overcast
2:00 PM 41.0 °F 34.7 °F 21.9 °F 47% 29.70 in - WNW 10.4 mph 18.4 mph N/A   Overcast
4:00 PM 39.0 °F 32.3 °F 21.9 °F 50% 29.71 in - WNW 10.4 mph - N/A   Overcast
5:00 PM 39.0 °F 34.8 °F 21.9 °F 50% 29.72 in - NW 5.8 mph - N/A   Overcast
6:00 PM 37.0 °F 32.4 °F 21.9 °F 54% 29.74 in - NW 5.8 mph - N/A   Overcast
7:00 PM 36.0 °F 30.3 °F 21.9 °F 57% 29.75 in - NW 6.9 mph - N/A   Overcast
8:00 PM 35.1 °F 27.4 °F 21.0 °F 57% 29.75 in - NW 10.4 mph - N/A   Overcast
9:00 PM 34.0 °F 26.6 °F 21.9 °F 61% 29.75 in - NW 9.2 mph - N/A   Overcast
10:00 PM 33.1 °F 27.7 °F 21.0 °F 61% 29.75 in - NW 5.8 mph - N/A   Mostly Cloudy
11:00 PM 32.0 °F 26.4 °F 21.0 °F 64% 29.75 in - NW 5.8 mph - N/A   Mostly Cloudy